User: anonymous   Login
Location: Unspecified
(0.0000°N, 0.0000°E)
Time: 19:44:05
(UTC+00:00)
Language:

Cosmos 2499 - Orbit

View from above orbital plane
View from above orbital plane
View from above satellite
View from above satellite

Ground track
Ground track

The orbit data is extracted from the following two-line orbital elements,

1 39765U 14028E   19340.90358493 +.00000037 +00000-0 +10000-3 0  9997
2 39765 082.4461 061.9515 0230901 198.8535 160.3907 12.82925110259517
Epoch (UTC): 06 December 2019 21:41:09
Eccentricity: 0.0230901
inclination: 82.4461°
perigee height: 1152 km
apogee height: 1508 km
right ascension of ascending node: 61.9515°
argument of perigee: 198.8535°
revolutions per day: 12.82925110
mean anomaly at epoch: 160.3907°
orbit number at epoch: 25951

The dashed part of the orbit path shows where the satellite is in the earth's shadow,  

DLR